Starlink 3588

operational
NORAD ID: 51869 Int'l Des: 2022-022 Owner: SPXS Country: US Constellation: starlink
LEOCIRCULAR

About Starlink 3588

Description loading...

Live Position

Loading 3D Globe...

Upcoming Passes

Altitude History

Altitude vs Time

uPlot chart will show altitude changes over time

Two-Line Element Set

1 51869U 22022T 26036.69036871 .00001330 00000-0 10161-3 0 9993
2 51869 53.2178 152.7703 0001284 92.6932 267.4207 15.08842263218286
Epoch: Feb 5, 2026 • Age: 14 hours

Current Status

Altitude 555.1 km
Velocity 7.58 km/s
Sub-Earth Point -43.27°S, 129.97°W
Launch Date Mar 3, 2022
Age 3.9 years
Type internet

Technical Details

Classification Payload
Mass 297.00 kg
Dry Mass 275.00 kg
Total Mass 297.00 kg
Length 0.20 m
Diameter 2.80 m
Span 9.00 m
Shape Box + pan
Manufacturer SPXS
Bus Type Starlink
Phase Status In Orbit
Owner/State SPXS/US

Large Constellations

Loading constellations...